TimeCST,TemperatureF,Dew PointF,Humidity,Sea Level PressureIn,VisibilityMPH,Wind Direction,Wind SpeedMPH,Gust SpeedMPH,PrecipitationIn,Events,Conditions,WindDirDegrees,DateUTC
12:53 AM,48.9,45.0,86,30.27,10.0,Calm,Calm,-,N/A,,Clear,0,2013-12-17 06:53:00
1:53 AM,46.9,45.0,93,30.26,10.0,Calm,Calm,-,N/A,,Clear,0,2013-12-17 07:53:00
2:53 AM,46.0,45.0,96,30.25,10.0,Calm,Calm,-,N/A,,Clear,0,2013-12-17 08:53:00
3:53 AM,48.0,46.0,93,30.25,8.0,Calm,Calm,-,N/A,,Clear,0,2013-12-17 09:53:00
4:53 AM,46.9,45.0,93,30.25,7.0,Calm,Calm,-,N/A,,Clear,0,2013-12-17 10:53:00
5:28 AM,46.4,44.6,93,30.25,2.0,Calm,Calm,-,N/A,,Clear,0,2013-12-17 11:28:00
5:37 AM,46.4,44.6,93,30.25,9.0,North,3.5,-,N/A,,Clear,10,2013-12-17 11:37:00
5:53 AM,46.9,45.0,93,30.26,10.0,Calm,Calm,-,N/A,,Clear,0,2013-12-17 11:53:00
6:53 AM,46.9,45.0,93,30.27,10.0,NNE,3.5,-,N/A,,Clear,20,2013-12-17 12:53:00
7:53 AM,48.0,46.0,93,30.28,8.0,Calm,Calm,-,N/A,,Clear,0,2013-12-17 13:53:00
8:53 AM,54.0,48.9,83,30.30,10.0,Calm,Calm,-,N/A,,Clear,0,2013-12-17 14:53:00
9:53 AM,59.0,50.0,72,30.33,10.0,Calm,Calm,-,N/A,,Clear,0,2013-12-17 15:53:00
10:53 AM,64.0,52.0,65,30.33,10.0,East,3.5,-,N/A,,Clear,100,2013-12-17 16:53:00
11:53 AM,68.0,52.0,56,30.30,10.0,Variable,3.5,-,N/A,,Clear,0,2013-12-17 17:53:00
12:53 PM,72.0,51.1,48,30.26,10.0,SSE,6.9,-,N/A,,Clear,150,2013-12-17 18:53:00
1:53 PM,73.0,50.0,44,30.23,10.0,SSE,9.2,-,N/A,,Clear,150,2013-12-17 19:53:00
2:53 PM,73.9,50.0,43,30.22,10.0,South,6.9,-,N/A,,Clear,180,2013-12-17 20:53:00
3:53 PM,73.9,50.0,43,30.21,9.0,ESE,9.2,-,N/A,,Clear,120,2013-12-17 21:53:00
4:53 PM,73.0,50.0,44,30.21,10.0,SE,8.1,-,N/A,,Clear,140,2013-12-17 22:53:00
5:53 PM,66.9,50.0,54,30.22,10.0,SE,3.5,-,N/A,,Clear,130,2013-12-17 23:53:00
6:53 PM,64.9,53.1,65,30.25,10.0,East,6.9,-,N/A,,Clear,100,2013-12-18 00:53:00
7:53 PM,63.0,55.0,75,30.27,10.0,East,8.1,-,N/A,,Clear,100,2013-12-18 01:53:00
8:53 PM,60.1,54.0,80,30.29,10.0,SE,4.6,-,N/A,,Clear,130,2013-12-18 02:53:00
9:53 PM,57.9,53.1,84,30.30,10.0,East,4.6,-,N/A,,Clear,100,2013-12-18 03:53:00
10:53 PM,57.0,53.1,87,30.30,10.0,ESE,4.6,-,N/A,,Clear,120,2013-12-18 04:53:00
11:53 PM,55.9,53.1,90,30.30,10.0,East,3.5,-,N/A,,Clear,100,2013-12-18 05:53:00